Regional Weather Roundup
Issued by NWS Wakefield, VA

Home | Current Version | Previous Version | Graphics & Text | Print | Product List | Glossary On
Versions: 1 2 3 4 5 6 7 8 9 10 11 12 13 14 15 16 17 18 19 20 21 22 23 24 25 26 27 28 29 30 31 32 33 34 35 36 37 38 39 40 41 42 43 44 45 46 47 48 49 50
000
ASUS41 KAKQ 311310
RWRAKQ

REGIONAL WEATHER ROUNDUP
NATIONAL WEATHER SERVICE WAKEFIELD VA
900 AM EDT THU JUL 31 2014

Note: "fair" indicates few or no clouds below 12,000 feet with no
significant weather and/or obstructions to visibility. * = Denotes
station may not report precipitation (e.g., rain,snow,etc.),
thunder or fog.

VAZ042-051-052>054-056-311400-
NORTHERN VIRGINIA

CITY           SKY/WX    TMP DP  RH WIND       PRES   REMARKS
WASH NATIONAL  MOSUNNY   74  60  61 S7        30.11S
DULLES         MOSUNNY   67  59  75 CALM      30.12R
FORT BELVOIR   SUNNY     72  61  68 VRB1      30.12R
QUANTICO       MOSUNNY   72  63  73 S7        30.12R
FREDERICKSBRG* SUNNY     73  64  73 SW5       30.11R
STAFFORD*      SUNNY     71  67  88 CALM      30.15S
WARRENTON      SUNNY     70  66  88 CALM      30.12R
CULPEPER*      SUNNY    N/A N/A N/A SW3       30.12S
MANASSAS*      MOSUNNY   66  63  88 CALM      30.12R
LEESBURG*      MOSUNNY   68  63  83 CALM      30.12S
WINCHESTER     SUNNY     68  59  73 S6        30.12R
$$

VAZ048-049-060>072-079>083-311400-
CENTRAL AND SOUTH CENTRAL VIRGINIA...AND NORTH CENTRAL NORTH CAROLINA

CITY           SKY/WX    TMP DP  RH WIND       PRES   REMARKS
RICHMOND       PTSUNNY   73  64  73 S8        30.13R
CHESTERFIELD*  MOSUNNY   70  57  64 S5        30.15R
HANOVER        SUNNY     71  63  75 VRB3      30.14S
TAPPAHANNOCK*  SUNNY     73  62  69 S6        30.14R
CHARLOTTSVILLE SUNNY     68  61  78 S3        30.12S
ORANGE*        SUNNY     70  61  73 S3        30.13S
LOUISA*        SUNNY     72  63  73 SW3       30.11S
FARMVILLE*     MOSUNNY   70  66  88 S3        30.11S
SOUTH HILL*    MOSUNNY   73  70  88 S6        30.18S
ROANOKE RAPIDS NOT AVBL
RALEIGH        PTSUNNY   73  66  78 CALM      30.13R
$$

VAZ088>098-311400-
SOUTHEAST VIRGINIA

CITY           SKY/WX    TMP DP  RH WIND       PRES   REMARKS
NORFOLK        SUNNY     75  63  66 S7        30.14R
VIRGINIA BEACH PTSUNNY   76  65  68 SE7       30.13S
NORFOLK NAVAL  MOSUNNY   77  64  64 S8        30.15R
WEST POINT*    SUNNY     75  64  68 S3        30.15R
NEWPORT NEWS   SUNNY     79  64  60 S7        30.13S
LANGLEY AFB    MOSUNNY   77  66  69 S10       30.13R
FORT EUSTIS    SUNNY     75  65  71 S5        30.12R
WILLIAMSBURG*  SUNNY     75  66  73 S6        30.14S
FRANKLIN*      MOSUNNY   73  64  73 SE3       30.14R
WAKEFIELD      SUNNY     73  65  75 S5        30.13S
$$

VAZ020-022-025-037-045-311400-
WESTERN AND SOUTHWEST VIRGINIA

CITY           SKY/WX    TMP DP  RH WIND       PRES   REMARKS
STAUNTON*      SUNNY     64  58  79 CALM      30.17S
HOT SPRINGS VA SUNNY     58  51  77 W8        30.24S
LYNCHBURG      MOSUNNY   69  62  78 CALM      30.15S
DANVILLE       PTSUNNY   70  64  81 E3        30.14S
MARTINSVILLE   PTSUNNY   68  61  80 CALM      30.17S
ROANOKE        PTSUNNY   66  56  70 N5        30.17S
BLACKSBURG     MOSUNNY   63  61  94 CALM        N/A
DUBLIN*        MOSUNNY   61  58  91 CALM      30.21R
MARION*        MOSUNNY   62  57  82 CALM      30.23R
HILLSVILLE*    MOSUNNY   60  56  85 CALM      30.21S
RICHLANDS*     PTSUNNY   61  57  84 CALM      30.20R
WISE*          PTSUNNY   66  54  63 CALM      30.21R
ABINGDON*      PTSUNNY   64  58  81 E7        30.18S
$$

MDZ021>025-VAZ099-100-311400-
SOUTHERN MARYLAND AND THE DELMARVA PENINSULA

CITY           SKY/WX    TMP DP  RH WIND       PRES   REMARKS
PATUXENT RIVER SUNNY     73  64  73 SW10      30.12R
BAY BRIDGE APT   N/A     73  63  68 S7        30.11S
LEONARDTOWN    SUNNY     72  63  73 SW6       30.14R
DOVER          SUNNY     73  67  81 S9        30.11R
GEORGETOWN     SUNNY     73  65  75 S12       30.13S
EASTON         SUNNY     75  68  78 S6        30.15R
CAMBRIDGE      SUNNY     77  66  69 SW7       30.11S
SALISBURY      SUNNY     76  65  68 S7        30.13R
OCEAN CITY     SUNNY     75  67  76 SW7       30.13S
WALLOPS ISLAND SUNNY     77  66  68 SW12      30.14R
ACCOMACK*        N/A     73  63  68 SW7       30.13S
$$

NCZ012>017-030>032-311400-
EASTERN NORTH CAROLINA

CITY           SKY/WX    TMP DP  RH WIND       PRES   REMARKS
ELIZABETH CITY PTSUNNY   75  68  78 CALM      30.14R
AHOSKIE*       PTSUNNY   70  66  86 CALM      30.14S
EDENTON*       PTSUNNY   73  68  85 CALM      30.14R
CURRITUCK*     PTSUNNY   73  68  82 CALM      30.15R
KILL DEVIL HLS PTSUNNY   78  65  66 E5        30.13S
MANTEO         NOT AVBL
CAPE HATTERAS  PTSUNNY   80  66  62 E6        30.13R
GOLDSBORO      PTSUNNY   72  71  98 E6        30.11R
WASHINGTON     PTSUNNY   71  65  83 E3        30.14R
GREENVILLE     PTSUNNY   72  68  88 E5        30.14S
NEW BERN       CLOUDY    77  68  73 E6        30.13R
WILMINGTON     CLOUDY    77  70  79 NE5       30.09R
$$

VAZ048-311400-
ELSEWHERE

CITY           SKY/WX    TMP DP  RH WIND       PRES   REMARKS
HARRISBURG PA  MOSUNNY   69  60  73 CALM      30.10R
BALTIMORE      MOSUNNY   72  60  66 W7        30.10R
ANNAPOLIS      SUNNY     74  61  63 SW5       30.10S
ANDREWS AFB    SUNNY     73  63  69 SW9       30.11S
WILMINGTON DE  SUNNY     70  62  76 S6        30.12S
PHILADELPHIA   MOSUNNY   72  60  66 S9        30.11S
WILDWOOD NJ*   SUNNY     75  61  60 S12       30.14S
ATLANTIC CITY  SUNNY     73  59  61 SW8       30.13R
HENDERSON NC   PTSUNNY   69  65  89 CALM      30.14S
GREENSBORO     PTSUNNY   70  64  81 NE3       30.14R
ROCKY MOUNT    PTSUNNY   73  67  81 NE3       30.13R
FAYETTEVILLE   CLOUDY    73  68  84 NE3       30.11R
CHARLOTTE      CLOUDY    73  64  73 E3        30.12R
$$

VAZ100-311400-
MARINE

STATION/POSITION TIME  TEMP    WIND        PRES    WAVE   SWELL
                       AIR SEA DIR/SP/G            HT/PER HT/PER
                 (UTC) (F)     (DEG/KT/KT) (MB)    (FT/S) (FT/S)
44066 TX TWR #4  1300   73 74  260/  6/  8 1020.0R   3/ 8   3/ 8
CAPE MAY NJ      1300   72 75  200/  9/ 12 1019.7S
LEWES DE         1300   73 71  210/  7/  9 1019.8S
15NM E FENWICK I 1300   74 73              1020.4R   3/ 8
OCEAN-CITY-INLET 1300   72 73  210/  7/  9 1019.9R
WACHAPREAGUE VA  1300   77 78  230/  4/  7 1020.3S
THOMAS POINT MD  1300   71 77  200/ 10/ 11 1020.1R
GOOSES REEF MD   1300   72     240/ 10/ 12 1020.0S
COVE POINT MD    1300   73     250/  9/ 13 1019.5R
SOLOMONS ISLAND  1300      79                N/A
BISHOPS HEAD MD  1300   74 75  230/ 13/ 15 1019.5R
PINEY POINT MD   1300          250/  2/  4   N/A
POTOMAC MD       1300   72     230/ 12/ 14 1019.2S
CAMBRIDGE MD     1300   73 78  230/  7/ 11 1019.5S
LEWISETTA VA     1300   73 77  230/ 10/ 12 1019.8R
RAPPAHANNOCK LGT 1300          190/ 11/ 13 1020.8R
STINGRAY PT      1300   74     210/ 10/ 12 1020.8R
YORK RVR RNG VA  1300   74     200/ 11/ 12 1019.8R
YORKTOWN VA      1300   74 78  200/  7/ 10 1020.0S
JAMESTOWN VA     1300   72     220/  8/ 10   N/A
DOMINION TERM VA 1300   73     200/  5/  5 1020.5S
KIPTOPEKE VA     1300      80  200/  8/  9   N/A
CHES BAY BRIDGE  1300   74 77  160/  6/  7 1019.8S
CAPE HENRY VA    1300   75     150/  5/  7 1019.2F
WILLOUBY STN VA  1300          210/  9/ 10 1019.7S
S CRANEY ISL VA  1300          190/  5/  9 1020.5S
CAPE HENRY BUOY  1300      76                N/A     2/ 8
1ST LANDING BUOY 1300   75     180/  6/  8 1020.0S
CAPE CHARLES BUO 1300      75                N/A     2/ 7
OFFSHORE WE BUOY 1300      77                N/A     2/ 7
64NM E OF VA BCH 1300   76 78  140/  2/  4 1020.3R   2/ 8   2/ 8
DUCK PIER NC     1300   77 76  130/  5/  5 1019.8R
44056 DUCK FRF   1300                        N/A     2/ 7
OREGON INLET NC  1300   77 78   70/  7/  8 1020.4R
HATTERAS NC      1300   79 79   70/  6/  8 1020.4S
DIAMOND SHLS NC  1300          VRB 10/ 12  1019.5R   4/ 8   3/ 8
CAPE LOOKOUT NC  1200   80      80/ 11/ 12 1019.1R
$$



USA.gov is the U.S. government's official web portal to all federal, state and local government web resources and services.